Flag for Germany Weather past 2 weeks in Euskirchen, North Rhine-Westphalia, Germany

Now
63 °F

Partly sunny.


Feels Like: 63 °F
Forecast: 46 / 64 °F
Wind: 12 mph from Southwest

Location: Noervenich

Current Time: Aug 23, 2014 at 2:12:44 PM

Latest Report: Aug 23, 2014 at 1:20 PM


Visibility: N/A

Pressure: 29.92 "Hg

Humidity: 59%

Dew point: 48 °F

Location of EuskirchenLocation

Historic Weather in Euskirchen — Graph

°F

Euskirchen temperature yesterday

Maximum temperature yesterday: 66 °F (at 2:20 PM)
Minimum temperature yesterday: 54 °F (at 3:20 AM)
Average temperature yesterday: 59 °F

Past Weeks' High & Low Weather Summary

 TemperatureHumidityPressure
High79 °F (Aug 8, 12:20 PM)100% (Aug 13, 4:20 PM)30.12 "Hg (Aug 13, 4:20 PM)
Low45 °F (Aug 20, 6:20 AM)40% (Aug 21, 3:20 PM)29.59 "Hg (Aug 10, 6:20 PM)
Average60 °F76%29.88 "Hg
* Reported Aug 8 12:20 PM — Aug 23 12:20 PM, Euskirchen, Weather by CustomWeather, © 2014

Note: Actual official high and low records may vary slightly from our data, if they occured in-between our weather recording intervals... More about our weather records

Advertising

Euskirchen weather history for previous 24 hours

 ConditionsComfort  
Time TempWeatherWind HumidityBarometerVisibility
12:20 PM
Aug 23
63 °FPartly sunny.10 mph64%29.92 "HgN/A
11:20 AM61 °FCool.10 mph72%29.95 "HgN/A
10:20 AM59 °FCool.8 mph77%29.92 "HgN/A
9:20 AM55 °FCool.1 mph82%29.92 "HgN/A
8:20 AM54 °FCool.2 mph88%29.92 "HgN/A
7:20 AM52 °FCool.1 mph94%29.92 "Hg6 mi
6:20 AM48 °FCool.No wind94%29.89 "Hg5 mi
5:20 AM50 °FCool.1 mph94%29.89 "Hg5 mi
4:20 AM52 °FCool.1 mph94%29.89 "Hg6 mi
3:20 AM54 °FCool.No wind88%29.89 "Hg6 mi
2:20 AM54 °FCool.5 mph88%29.89 "HgN/A
1:20 AM55 °FCool.7 mph82%29.89 "HgN/A
12:20 AM55 °FCool.6 mph88%29.92 "HgN/A
11:20 PM
Aug 22
57 °FCool.6 mph82%29.92 "Hg5 mi
10:20 PM57 °FCool.6 mph77%29.92 "Hg4 mi
9:20 PM57 °FCool.2 mph82%29.92 "Hg6 mi
8:20 PM57 °FCool.6 mph82%29.89 "Hg4 mi
7:20 PM59 °FPartly sunny.9 mph77%29.89 "HgN/A
6:20 PM64 °FPartly sunny.7 mph56%29.86 "HgN/A
5:20 PM64 °FBroken clouds.9 mph56%29.86 "HgN/A
4:20 PM64 °FPartly sunny.7 mph56%29.86 "HgN/A
3:20 PM64 °FPartly sunny.12 mph56%29.89 "HgN/A
2:20 PM66 °FBroken clouds.9 mph49%29.89 "HgN/A
Weather by CustomWeather, © 2014

See weather overviewHow to use our weather pages